This demonstration page uses our WeatherBlox Daily Observations layout. Learn more.

Left ArrowRight Arrow

41.12389, -100.76542

Hourly Observations for March 22, 2021

Temp ( °F °C ) Dew Point ( °F °C ) Humidity (%) Winds ( mph kmh ) Pressure ( in mb ) Visibility ( mi km ) Precip ( " mm )
12:53 am 00:53 Clear 42 5.6 30 -1.1 62 62 Calm 30.05 1018 10 16 0.00 0.00
1:53 am 01:53 Clear 35 1.7 29 -1.7 78 78 Calm 30.03 1017 10 16 0.00 0.00
3:53 am 03:53 Clear 37 2.8 30 -1.1 76 76 NW 3 6 30.02 1017 10 16 0.00 0.00
4:53 am 04:53 Partly Cloudy 37 2.8 31 -0.6 79 79 Calm 30.00 1016 10 16 0.00 0.00
5:53 am 05:53 Partly Cloudy 37 2.8 31 -0.6 79 79 Calm 30.00 1016 10 16 0.00 0.00
6:53 am 06:53 Clear 36 2.2 31 -0.6 82 82 NNW 3 6 29.99 1016 10 16 0.00 0.00
7:53 am 07:53 Sunny 39 3.9 27 -2.8 62 62 Calm 29.99 1016 10 16 0.00 0.00
8:53 am 08:53 Mostly Sunny 39 3.9 28 -2.2 65 65 Calm 29.98 1015 10 16 0.00 0.00
9:53 am 09:53 Partly Cloudy 41 5 28 -2.2 60 60 Calm 29.97 1015 10 16 0.00 0.00
10:53 am 10:53 Mostly Cloudy 45 7.2 27 -2.8 49 49 E 3 6 29.95 1014 10 16 0.00 0.00
11:53 am 11:53 Cloudy 48 8.9 26 -3.3 42 42 ENE 8 13 29.93 1014 10 16 0.00 0.00
12:53 pm 12:53 Mostly Sunny 51 10.6 27 -2.8 39 39 E 16 26 29.91 1013 10 16 0.00 0.00
1:53 pm 13:53 Mostly Cloudy 49 9.4 30 -1.1 48 48 E 8 13 29.91 1013 10 16 0.00 0.00
2:53 pm 14:53 Partly Cloudy 49 9.4 30 -1.1 48 48 ESE 10 17 29.86 1011 10 16 0.00 0.00
3:53 pm 15:53 Cloudy 47 8.3 31 -0.6 54 54 SE 8 13 29.87 1012 10 16 0.00 0.00
4:53 pm 16:53 Cloudy 47 8.3 32 0 56 56 E 17 28 29.86 1011 10 16 0.00 0.00
5:53 pm 17:53 Cloudy 42 5.6 34 1.1 73 73 E 17 28 29.86 1011 10 16 0.00 0.00
6:53 pm 18:53 Cloudy with Light Rain 40 4.4 34 1.1 79 79 E 20 31 29.86 1011 10 16 0.00 0.00
7:53 pm 19:53 Cloudy 39 3.9 34 1.1 82 82 ENE 12 19 29.87 1012 10 16 0.00 0.00
8:37 pm 20:37 Cloudy with Light Rain 38 3.3 34 1.1 86 86 ENE 10 17 29.91 1013 10 16 0.00 0.00
8:53 pm 20:53 Cloudy with Light Rain 38 3.3 34 1.1 86 86 ENE 10 17 29.87 1012 10 16 0.00 0.00
8:55 pm 20:55 Cloudy with Light Rain 38 3.3 34 1.1 86 86 ENE 8 13 29.91 1013 10 16 0.00 0.00
9:20 pm 21:20 Cloudy with Light Rain 38 3.3 34 1.1 86 86 NE 8 13 29.91 1013 10 16 0.01 0.25
9:40 pm 21:40 Cloudy with Light Rain 38 3.3 34 1.1 86 86 NE 7 11 29.90 1012 10 16 0.02 0.51
9:53 pm 21:53 Cloudy with Light Rain 38 3.3 34 1.1 86 86 NE 10 17 29.85 1011 10 16 0.03 0.76
10:08 pm 22:08 Cloudy 38 3.3 34 1.1 86 86 NNE 10 17 29.89 1012 10 16 0.00 0.00
10:48 pm 22:48 Cloudy 37 3 34 1 87 87 NNE 8 13 29.89 1012 10 16 0.00 0.00
10:53 pm 22:53 Cloudy 38 3.3 34 1.1 86 86 NNE 7 11 29.84 1011 10 16 0.00 0.00
11:13 pm 23:13 Cloudy 38 3.3 34 1.1 86 86 NNE 10 17 29.88 1012 10 16 0.00 0.00
11:36 pm 23:36 Cloudy 38 3.3 34 1.1 86 86 N 9 15 29.87 1011 10 16 0.00 0.00
11:53 pm 23:53 Cloudy 38 3.3 34 1.1 86 86 N 12 19 29.81 1010 10 16 0.00 0.00

Powered by AerisWeather